Location: Brest
(52.1000°N, 23.7000°E)
Time: 04:17:59
(UTC+03:00)

Genesis I - Visible Passes

Search period start: 21 October 2017 00:00
Search period end: 30 October 2017 23:00
Orbit: 495 x 534 km, 64.5° (Epoch: 20 October)

Date Brightness Start Highest point End Pass type
(mag) Time Alt. Az. Time Alt. Az. Time Alt. Az.
21 Oct 5.4 19:21:08 10° WNW 19:24:04 19° NNW 19:27:01 10° NNE visible
21 Oct 5.7 21:00:57 10° NNW 21:03:07 14° N 21:03:07 14° N visible
22 Oct 5.4 19:05:06 10° WNW 19:08:02 19° NNW 19:10:59 10° NNE visible
22 Oct 5.6 20:44:55 10° NNW 20:47:06 14° N 20:47:26 14° N visible
23 Oct 5.4 18:49:05 10° WNW 18:52:00 19° NNW 18:54:56 10° NNE visible
23 Oct 5.6 20:28:53 10° NNW 20:31:04 14° N 20:31:44 14° NNE visible
24 Oct 5.5 20:12:50 10° NNW 20:15:02 14° N 20:16:03 13° NNE visible
24 Oct 6.3 21:50:40 10° NNW 21:51:00 12° NNW 21:51:00 12° NNW visible
25 Oct 5.5 19:56:48 10° NNW 19:59:00 14° N 20:00:22 12° NNE visible
25 Oct 6.1 21:34:37 10° NNW 21:35:19 14° NNW 21:35:19 14° NNW visible
26 Oct 5.5 19:40:45 10° NNW 19:42:57 14° N 19:44:41 11° NNE visible
26 Oct 5.8 21:18:34 10° NNW 21:19:39 16° NNW 21:19:39 16° NNW visible
27 Oct 5.5 19:24:42 10° NNW 19:26:54 14° N 19:29:01 10° NE visible
27 Oct 5.6 21:02:30 10° NNW 21:03:59 18° NNW 21:03:59 18° NNW visible
28 Oct 5.5 19:08:39 10° NNW 19:10:52 14° N 19:13:05 10° NE visible
28 Oct 5.3 20:46:27 10° NNW 20:48:20 20° N 20:48:20 20° N visible
29 Oct 5.4 17:52:36 10° NNW 17:54:48 14° N 17:57:02 10° NE visible
29 Oct 5.0 19:30:23 10° NNW 19:32:42 22° N 19:32:42 22° N visible
30 Oct 5.4 17:36:33 10° NNW 17:38:45 14° N 17:40:59 10° NE visible
30 Oct 4.8 19:14:19 10° NNW 19:17:06 24° NNE 19:17:06 24° NNE visible
30 Oct 6.4 20:51:46 10° NW 20:52:03 12° NW 20:52:03 12° NW visible
